Change the Weather History Date:

Friday, October 7, 2011

  Actual Average Record
Temperature  
Mean Temperature 68 °F 68 °F  
Max Temperature 74 °F 74 °F 86 °F (1990)
Min Temperature 61 °F 63 °F 46 °F (1980)
Degree Days  
Heating Degree Days 0 1  
Month to date heating degree days 12 7  
Since 1 July heating degree days 12 10  
Cooling Degree Days 3 5  
Month to date cooling degree days 8 37  
Year to date cooling degree days 2274 1629  
Growing Degree Days 18 (Base 50)    
Moisture  
Dew Point 54 °F    
Average Humidity 66    
Maximum Humidity 78    
Minimum Humidity 53    
Precipitation  
Precipitation 0.00 in 0.18 in 5.35 in (1974)
Month to date precipitation 0.00 1.29  
Year to date precipitation 47.15 44.73  
Snow  
Snow 0.00 in - - ()
Month to date snowfall 0.0  
Since 1 July snowfall 0.0  
Snow Depth 0.00 in    
Sea Level Pressure  
Sea Level Pressure 30.38 in    
Wind  
Wind Speed 8 mph (NE)    
Max Wind Speed 15 mph    
Max Gust Speed 22 mph    
Visibility 10 miles    
Events      
T = Trace of Precipitation, MM = Missing Value Source: NWS Daily Summary

Daily Weather History Graph

Daily Weather History Graph

Search for Another Location

Airport or City:

Trip Planner

Search our weather history database for the weather conditions in past years. The results will help you decide how hot, cold, wet, or windy it might be!

Date:

Astronomy

Oct. 07, 2011 Rise Set
Actual Time 7:01 AM EDT 6:38 PM EDT
Civil Twilight 6:36 AM EDT 7:03 PM EDT
Nautical Twilight 6:07 AM EDT 7:33 PM EDT
Astronomical Twilight 5:37 AM EDT 8:02 PM EDT
Moon 4:13 PM EDT (10/7) 2:56 AM EDT (10/7)
Length of Visible Light 12h 27m
Length of Day
11h 36m
Waxing Gibbous, 83% of the Moon is Illuminated
Oct 7
Waxing Gibbous
Oct 11
Full
Oct 19
Last Quarter
Oct 26
New
Nov 2
First Quarter

Hourly Weather History & Observations

Time (EDT) Temp. Dew Point Humidity Pressure Visibility Wind Dir Wind Speed Gust Speed Precip Events Conditions
12:51 AM 64.0 °F 52.0 °F 65% 30.33 in 10.0 mi NE 6.9 mph - N/A   Clear
1:51 AM 64.0 °F 53.1 °F 67% 30.33 in 10.0 mi NE 5.8 mph - N/A   Clear
2:51 AM 64.0 °F 53.1 °F 67% 30.32 in 10.0 mi NE 8.1 mph - N/A   Clear
3:51 AM 64.0 °F 54.0 °F 70% 30.31 in 10.0 mi NE 8.1 mph - N/A   Clear
4:51 AM 64.0 °F 55.0 °F 73% 30.32 in 10.0 mi NE 6.9 mph - N/A   Clear
5:51 AM 64.0 °F 55.0 °F 73% 30.32 in 10.0 mi NE 5.8 mph - N/A   Clear
6:51 AM 64.0 °F 55.0 °F 73% 30.34 in 10.0 mi NE 6.9 mph - N/A   Clear
7:51 AM 64.9 °F 55.9 °F 73% 30.36 in 10.0 mi NE 9.2 mph - N/A   Clear
8:51 AM 68.0 °F 55.9 °F 65% 30.37 in 10.0 mi NE 6.9 mph - N/A   Clear
9:51 AM 70.0 °F 55.9 °F 61% 30.39 in 10.0 mi NE 11.5 mph 18.4 mph N/A   Clear
10:41 AM 71.6 °F 55.4 °F 57% 30.40 in 10.0 mi ENE 10.4 mph 17.3 mph N/A   Partly Cloudy
10:51 AM 72.0 °F 55.9 °F 57% 30.40 in 10.0 mi NE 11.5 mph 17.3 mph N/A   Clear
11:51 AM 72.0 °F 55.0 °F 55% 30.40 in 10.0 mi NE 12.7 mph 18.4 mph N/A   Clear
12:51 PM 72.0 °F 54.0 °F 53% 30.40 in 10.0 mi NNE 12.7 mph 20.7 mph N/A   Clear
1:51 PM 72.0 °F 54.0 °F 53% 30.39 in 10.0 mi NE 9.2 mph 21.9 mph N/A   Clear
2:51 PM 72.0 °F 53.1 °F 51% 30.38 in 10.0 mi NNE 12.7 mph 19.6 mph N/A   Clear
3:51 PM 71.1 °F 53.1 °F 53% 30.38 in 10.0 mi NE 11.5 mph 21.9 mph N/A   Clear
4:51 PM 70.0 °F 53.1 °F 55% 30.39 in 10.0 mi NNE 13.8 mph 19.6 mph N/A   Clear
5:51 PM 68.0 °F 53.1 °F 59% 30.39 in 10.0 mi NE 8.1 mph - N/A   Clear
6:51 PM 66.0 °F 55.0 °F 68% 30.40 in 10.0 mi NE 5.8 mph - N/A   Clear
7:51 PM 64.9 °F 55.0 °F 70% 30.41 in 10.0 mi NE 6.9 mph - N/A   Clear
8:51 PM 64.0 °F 55.0 °F 73% 30.43 in 10.0 mi NE 4.6 mph - N/A   Clear
9:51 PM 64.0 °F 55.0 °F 73% 30.43 in 10.0 mi ENE 4.6 mph - N/A   Clear
10:51 PM 63.0 °F 55.0 °F 75% 30.44 in 10.0 mi ENE 4.6 mph - N/A   Clear
11:51 PM 62.1 °F 53.1 °F 72% 30.43 in 10.0 mi ENE 3.5 mph - N/A   Clear